Theta_e
308 308 309 310 311 313 316 317 316 316 315 315 316 316 317 317 316 316 323 322 319 319 317 318 316 318 317 318 314 315 314 315 316 309 308 308 305 309 306 309 308 307 305 305 307 302 299 314 313 308 314 316 316 317
308 308 309 310 313 314 316 316 315 315 314 314 316 316 316 316 316 315 320 322 322 319 318 321 320 320 318 316 319 318 316 316 318 315 313 315 308 310 307 303 311 305 310 308 307 308 315 317 315 317 317 316 317 317
308 309 309 312 314 314 314 314 314 313 313 313 314 315 315 315 315 314 319 320 320 319 317 317 315 319 321 319 320 316 320 319 320 320 319 316 307 312 305 307 308 310 314 307 307 312 313 314 317 318 318 318 319 319
307 309 309 310 312 312 312 311 311 312 312 311 312 313 315 314 314 314 320 320 318 319 313 313 320 318 321 322 319 319 319 320 319 321 317 314 310 313 310 309 307 312 311 308 308 312 313 314 315 317 318 319 319 319
306 307 308 308 308 310 311 311 310 310 310 311 311 312 313 314 313 317 322 323 321 315 312 313 318 319 320 321 318 319 319 318 317 314 312 311 314 311 313 311 307 313 310 307 306 314 314 315 318 319 318 317 320 320
307 307 307 307 307 308 309 310 310 309 309 309 310 311 311 313 312 320 319 323 324 320 315 309 318 316 319 320 320 319 319 318 318 315 312 315 314 313 309 309 311 313 314 316 314 318 316 318 319 320 319 320 321 321
306 307 306 306 306 307 308 309 310 308 307 308 309 310 310 312 315 316 316 318 314 321 317 312 311 317 318 318 321 320 322 319 319 315 316 316 314 313 311 307 312 314 316 317 318 318 315 317 316 321 322 323 323 324
306 306 306 306 306 306 308 308 308 308 307 307 308 309 310 311 312 316 321 314 316 318 317 312 311 311 317 314 314 322 318 319 318 317 316 315 314 314 308 311 314 316 316 316 317 318 318 320 322 322 324 324 321 321
305 306 306 306 306 306 307 307 307 307 307 307 308 310 316 317 318 321 314 313 323 318 311 311 308 306 316 316 318 316 319 312 318 314 314 313 311 307 311 311 314 315 315 316 317 318 320 320 321 322 322 321 318 316
306 306 306 306 306 306 306 306 307 307 307 308 312 316 314 320 315 317 318 316 315 316 315 311 318 310 314 314 314 314 316 313 307 312 316 309 310 317 316 317 319 319 319 318 316 316 319 320 320 319 319 318 317 316
306 306 306 306 306 306 306 306 306 308 309 311 314 315 320 313 318 316 312 311 312 307 311 314 315 311 319 311 311 316 312 311 304 308 308 307 306 314 318 317 320 321 321 321 322 323 323 322 319 317 315 316 316 315
306 306 306 306 306 306 306 307 307 307 310 309 312 315 319 316 313 308 307 311 309 307 311 310 314 316 315 320 314 313 309 308 300 312 307 303 312 319 319 318 318 322 322 323 324 323 323 322 319 317 317 316 315 315
305 306 306 306 306 306 306 307 307 308 309 313 312 313 313 311 298 302 300 304 307 312 312 313 311 314 315 318 312 310 303 305 313 306 305 309 316 318 320 319 319 322 324 324 323 323 322 321 322 317 316 316 315 315
305 306 306 306 306 306 306 307 307 308 309 307 309 294 304 302 305 307 308 310 313 315 313 314 312 313 314 311 311 303 309 310 302 300 301 310 317 318 318 319 320 321 323 323 322 321 321 320 317 317 317 316 315 314
305 305 306 305 305 305 306 307 308 311 308 306 308 299 304 311 313 314 316 314 315 317 315 313 313 314 310 307 310 307 303 300 303 303 309 313 319 319 319 320 322 323 323 322 321 320 321 320 317 316 316 316 316 315
304 304 305 304 305 305 306 307 310 310 310 309 309 306 311 308 309 311 312 313 317 316 317 315 310 307 306 308 303 301 300 299 305 311 313 317 319 321 322 323 324 325 323 322 322 322 322 320 317 315 316 316 314 313
304 303 305 306 307 306 307 307 309 305 307 304 305 312 311 312 313 315 317 315 318 315 310 312 304 303 310 305 302 308 306 309 312 313 316 320 322 323 324 326 326 324 323 323 322 322 322 322 322 319 315 316 313 312
303 305 307 308 307 307 308 308 306 305 303 308 307 310 314 315 314 314 317 317 316 314 313 309 311 305 303 300 303 309 312 313 316 317 319 321 325 326 326 326 324 323 323 322 322 322 322 321 319 317 318 318 313 313
304 307 306 307 308 308 304 305 307 303 306 310 312 313 314 316 317 317 317 317 319 318 315 313 307 306 307 312 310 312 313 313 313 316 320 325 327 326 326 326 324 323 322 321 320 318 319 319 318 318 315 315 309 310
305 305 305 306 308 305 302 305 310 306 305 308 311 311 311 312 315 316 315 314 313 312 309 308 309 312 311 314 315 315 315 317 316 315 317 321 329 327 325 325 321 322 320 319 316 308 313 312 313 312 310 310 309 308
304 307 308 310 311 309 307 305 306 308 309 309 311 312 309 313 311 314 309 316 314 307 309 312 314 316 319 318 319 319 319 318 317 317 321 323 327 325 324 326 324 319 315 314 312 310 308 309 310 311 310 310 311 311
305 308 308 308 305 307 307 311 308 310 308 309 309 311 308 305 307 309 314 311 310 311 314 315 316 316 316 317 318 320 321 322 324 320 312 315 322 323 323 323 318 313 312 311 310 309 309 310 310 311 311 312 311 312
307 309 306 305 303 300 300 309 305 307 302 305 308 305 305 306 310 314 306 308 311 316 316 316 318 319 318 321 323 322 324 324 322 324 324 329 326 326 323 318 314 312 311 311 312 311 311 305 309 311 312 312 312 312
307 303 300 299 300 297 307 303 308 306 307 304 302 300 303 307 311 307 304 308 312 315 315 319 315 315 317 321 319 320 323 324 322 323 330 327 322 324 321 315 314 314 315 314 313 313 313 312 306 312 311 311 311 310
296 297 299 291 303 299 297 300 300 302 297 301 299 301 304 309 303 302 303 307 311 312 313 316 315 315 314 315 317 320 325 322 325 327 330 323 322 321 318 315 315 316 317 315 313 314 314 315 315 314 312 311 312 311
290 298 294 297 298 296 297 294 297 296 297 297 299 306 309 305 300 299 305 309 311 312 313 315 314 315 316 318 317 318 321 321 322 326 329 324 320 317 315 314 313 314 319 319 317 317 316 317 316 313 313 311 301 310
291 295 301 307 304 301 299 302 306 303 296 295 299 300 301 297 299 307 313 317 316 317 319 320 318 317 317 319 321 324 324 325 325 324 326 324 319 318 316 314 313 316 319 320 322 319 316 315 316 314 313 312 311 311
301 301 295 299 299 304 299 301 300 297 295 300 300 298 299 300 304 315 320 322 324 322 322 322 322 322 321 321 323 324 323 324 328 327 326 324 321 319 319 320 321 302 321 324 325 326 319 315 315 313 311 310 311 313
300 301 301 297 299 300 301 301 300 302 304 303 303 304 306 314 317 319 320 322 324 320 319 319 320 322 323 323 323 324 325 324 322 320 317 314 315 316 320 321 321 322 321 319 300 309 316 315 314 312 311 313 314 315
298 303 300 299 298 297 303 307 305 308 309 308 311 312 313 316 318 321 321 322 322 321 321 321 321 320 319 319 319 322 324 324 323 319 316 314 316 319 320 320 319 321 320 320 319 317 299 311 307 312 312 314 315 314
307 305 303 302 301 304 307 310 309 309 309 310 313 310 310 313 317 320 319 320 320 320 320 319 319 320 321 319 320 319 319 324 325 323 322 320 320 320 319 319 320 320 321 320 319 317 316 315 316 313 311 311 311 310
305 303 303 298 302 308 310 308 309 309 309 308 307 309 308 309 307 317 320 319 318 319 311 314 317 319 322 322 322 322 307 323 325 323 322 320 320 321 320 320 319 320 320 320 319 318 317 316 315 313 313 311 311 312
304 305 305 304 304 302 307 306 305 304 307 306 306 308 308 308 306 317 320 320 320 317 316 319 321 324 325 323 321 320 313 321 309 297 297 298 298 307 318 320 320 321 319 319 318 317 317 316 315 315 315 312 313 313
Wind_Speed
11 12 15 14 14 12 10 7 5 7 11 13 13 14 15 16 16 9 2 5 5 3 5 3 2 1 2 2 4 6 6 6 4 6 4 4 5 4 5 3 2 5 4 5 4 6 12 4 4 7 7 5 6 9
11 12 14 15 13 11 7 2 3 5 10 12 13 14 14 14 15 14 3 3 3 5 7 3 4 4 5 6 3 3 5 2 4 2 2 1 4 4 4 5 3 4 4 6 5 7 4 2 3 3 6 8 10 11
11 12 12 17 7 2 2 3 3 6 7 11 12 13 14 14 14 11 5 5 4 4 5 6 6 6 4 6 6 4 2 3 3 4 1 2 3 4 5 2 1 4 1 5 4 6 3 4 6 7 8 10 12 14
9 9 7 10 4 1 2 2 3 5 7 9 12 13 14 14 14 12 4 5 5 4 3 7 3 4 3 5 4 3 5 4 5 3 2 2 2 2 1 4 6 7 3 2 8 8 6 9 7 8 11 14 17 18
10 8 6 6 6 6 6 4 3 5 7 9 11 13 14 14 14 10 4 2 4 6 4 7 7 3 4 5 5 4 6 5 4 4 3 2 2 4 1 2 5 2 4 5 7 9 7 10 12 15 16 18 17 19
10 9 7 7 7 7 8 8 6 5 7 10 11 13 14 13 13 5 5 3 2 4 5 6 5 5 5 5 7 6 4 3 0 1 3 3 3 5 3 1 6 2 2 4 6 9 11 14 14 15 16 20 21 21
9 9 9 8 8 8 9 6 6 5 8 11 12 13 13 11 7 4 7 5 5 5 4 4 6 5 3 4 3 4 3 3 2 3 1 2 3 4 2 2 6 2 3 4 6 9 12 13 16 18 18 18 20 21
9 9 8 8 9 8 7 6 7 8 9 12 13 14 14 14 9 5 3 3 5 5 4 3 4 7 5 5 5 0 3 3 2 2 3 1 4 3 2 5 1 1 4 6 9 11 14 16 16 18 18 19 21 21
9 9 9 8 8 8 8 7 7 8 10 11 13 15 6 5 4 4 4 5 3 5 3 3 5 5 6 3 2 4 2 3 1 2 2 3 3 4 6 3 1 3 6 10 12 14 14 16 17 19 20 21 20 19
9 9 8 7 7 7 7 7 8 8 8 9 6 5 5 3 3 5 5 5 5 4 4 4 2 5 6 6 4 4 2 1 3 4 2 4 2 6 4 1 4 7 9 11 14 14 16 17 17 18 20 17 15 16
8 7 7 7 7 6 6 6 6 7 8 4 5 1 4 3 4 4 4 5 4 5 5 2 5 6 1 6 5 2 2 2 3 5 4 3 4 7 6 3 4 6 8 10 11 12 13 14 15 16 17 16 15 16
7 7 6 6 5 4 5 5 4 3 2 4 4 2 3 5 4 5 5 3 5 4 5 7 7 3 5 1 3 3 2 3 1 4 4 3 7 5 1 3 5 7 9 10 10 11 12 13 13 13 15 15 14 14
6 6 6 5 4 4 5 5 5 7 8 2 4 5 3 4 2 7 9 5 5 6 6 7 8 5 5 2 3 3 5 2 3 4 3 2 8 3 3 5 6 7 7 8 10 10 12 13 15 14 14 11 13 13
7 6 6 5 5 4 4 4 5 6 3 4 5 3 6 6 6 4 3 3 5 5 9 9 6 3 3 3 2 4 3 4 4 4 4 6 5 3 4 4 6 8 7 8 9 11 12 13 13 12 11 11 12 13
5 5 6 6 7 6 4 4 5 3 3 4 4 4 7 0 1 1 1 4 4 7 10 7 5 3 4 4 2 3 5 4 4 3 4 6 3 3 4 5 6 6 6 7 8 10 12 13 13 13 13 12 13 13
4 4 4 2 5 4 5 3 3 2 3 3 4 4 3 5 5 5 5 4 5 8 8 5 4 4 3 4 5 5 4 4 5 4 4 4 1 2 3 4 4 4 5 6 8 9 10 13 12 11 12 13 13 13
4 2 3 6 5 4 4 3 3 3 3 3 3 4 4 3 2 2 2 4 5 9 8 4 6 3 4 4 4 3 2 5 6 4 3 3 2 3 3 2 2 3 4 6 6 6 7 9 11 12 15 14 12 12
2 1 8 7 8 4 2 3 2 3 4 5 3 4 2 2 2 3 2 4 7 9 6 2 4 6 4 5 5 5 5 6 3 3 2 2 1 2 1 2 5 4 5 6 5 5 7 8 8 8 10 10 8 12
2 1 6 6 4 2 2 3 3 3 3 1 1 1 1 1 1 1 2 4 0 2 4 3 2 3 3 1 4 7 7 5 4 4 2 3 1 4 5 5 5 5 6 6 6 5 5 8 8 7 8 8 9 10
1 4 3 2 3 2 2 2 2 3 1 3 2 2 1 2 2 2 4 5 3 3 3 3 1 2 4 5 5 5 5 5 4 3 5 3 4 6 5 5 5 4 4 4 5 7 6 7 7 8 8 8 9 11
1 1 2 3 3 2 1 3 4 1 1 1 1 1 2 1 1 2 3 2 3 3 2 2 2 6 6 5 4 3 4 4 2 3 2 3 3 5 5 4 4 4 4 4 4 5 5 7 6 6 8 9 8 8
1 3 2 2 3 3 2 0 2 2 2 2 2 2 3 3 1 2 2 1 4 5 1 2 2 4 4 4 4 4 4 5 2 4 4 5 4 5 5 5 4 6 6 5 5 6 6 5 6 6 6 6 8 8
4 1 1 2 2 2 1 1 4 3 3 3 3 3 3 4 6 7 3 4 6 5 6 4 2 2 2 4 5 6 5 5 4 3 4 4 5 6 5 6 6 7 7 6 5 6 6 1 4 5 6 6 7 7
2 1 2 2 1 1 2 4 2 1 2 3 3 3 3 3 5 5 6 6 5 4 6 7 6 5 4 5 6 6 6 4 5 5 5 5 6 6 5 7 7 7 7 6 6 5 5 5 2 5 5 6 6 7
1 2 1 3 3 3 3 5 4 2 2 3 2 2 2 3 5 5 7 7 7 7 6 5 5 6 6 6 6 5 6 5 4 5 5 5 6 7 7 7 8 8 5 6 5 5 4 3 4 4 5 7 9 7
1 4 4 4 3 2 3 2 4 4 1 1 3 1 2 4 5 5 6 8 8 8 8 8 8 7 6 6 6 6 6 4 4 4 5 5 6 7 9 9 8 6 4 2 3 2 2 1 3 5 5 3 5 7
2 3 4 1 1 2 3 2 1 2 2 1 1 2 2 4 5 3 4 2 3 4 5 6 8 7 7 7 4 4 4 4 5 4 8 6 6 8 8 8 8 7 6 5 2 4 5 2 2 4 5 5 7 7
1 3 2 6 3 2 3 3 4 3 2 2 2 4 5 4 2 3 3 3 2 2 4 5 5 5 6 6 6 7 6 3 4 7 8 6 6 7 6 6 4 4 4 2 1 2 2 4 4 4 4 5 5 6
1 1 3 5 5 2 3 2 3 4 4 4 4 0 3 3 3 3 3 2 1 4 6 7 5 6 5 6 5 5 6 7 10 13 14 10 9 7 6 5 6 6 4 6 5 5 4 4 3 4 4 4 3 3
2 4 4 6 4 1 3 2 3 6 6 6 5 3 4 4 4 3 3 3 4 5 5 4 5 7 7 7 6 6 5 6 8 7 9 9 9 8 7 6 5 3 6 4 7 7 3 5 4 6 3 2 1 3
3 6 4 5 4 7 6 5 5 5 5 3 1 4 5 3 3 2 4 3 4 5 5 5 2 6 6 7 6 6 6 5 5 4 7 8 7 7 6 6 5 3 4 6 6 7 7 5 1 2 4 3 1 3
5 5 2 5 3 3 3 2 1 1 2 3 2 2 4 3 3 2 0 3 4 6 4 2 3 5 4 4 3 3 3 6 8 8 8 6 6 6 6 5 4 4 6 7 6 5 6 7 5 6 2 5 4 6
3 3 4 3 4 4 3 3 3 3 2 2 2 1 2 3 4 2 3 3 1 4 6 5 4 4 6 4 6 5 5 6 9 9 9 7 8 6 4 3 4 7 7 5 4 6 6 6 6 7 6 4 7 8
Wind_Direction
294 297 296 297 292 288 291 278 313 334 340 341 344 346 349 351 353 338 15 1 310 303 90 14 35 30 160 269 233 105 191 196 209 240 269 175 260 155 242 35 254 243 255 216 258 277 256 57 183 291 12 319 328 315
293 296 297 303 292 285 281 283 323 337 341 339 342 344 346 347 351 337 287 26 313 275 36 359 18 5 8 12 327 163 23 54 28 261 222 179 196 185 311 208 175 234 338 345 319 27 58 7 10 347 329 311 311 308
294 299 306 313 245 244 359 359 344 338 346 336 340 344 345 345 350 348 319 342 248 259 151 193 122 66 68 18 348 278 143 85 137 347 11 43 241 300 226 220 236 151 4 267 312 106 349 328 301 291 287 298 306 302
310 313 315 333 16 19 326 333 348 352 341 331 333 339 343 343 340 332 310 359 275 299 254 118 154 96 350 58 19 322 96 135 115 239 232 239 240 261 62 27 277 37 183 320 270 262 313 287 314 297 290 301 302 300
299 293 293 305 317 312 296 283 302 320 329 331 329 329 336 339 331 300 268 353 2 309 342 126 133 83 115 83 92 110 142 155 182 184 209 121 88 221 128 270 243 149 28 289 337 353 319 301 317 315 306 301 299 299
284 273 271 278 284 288 284 275 275 296 314 319 319 321 326 332 327 264 204 157 357 341 267 181 91 141 112 114 95 81 80 96 104 214 95 105 78 280 251 269 89 127 140 347 318 323 317 306 295 297 307 312 304 302
282 274 268 277 286 294 274 285 260 276 315 309 309 310 311 317 309 292 359 23 352 299 257 157 152 134 160 166 117 116 98 82 357 122 104 106 142 268 273 262 111 138 324 323 303 309 307 318 313 310 303 307 304 301
277 278 265 268 277 281 287 274 258 281 300 296 297 299 296 300 258 245 131 228 223 273 252 237 106 164 198 176 145 259 160 179 51 69 178 211 158 243 243 114 132 329 305 297 333 321 311 309 310 317 316 316 315 316
267 272 269 266 271 269 269 269 281 282 282 287 292 290 273 219 221 76 119 171 240 297 280 244 182 152 179 126 104 155 251 194 109 203 115 250 131 218 116 113 58 347 323 320 319 317 318 323 318 321 323 321 322 308
258 262 260 263 266 262 265 273 275 280 281 279 266 214 183 101 88 170 181 199 194 185 223 254 39 137 213 175 136 159 221 128 210 80 172 236 191 101 147 59 338 328 329 325 320 323 323 322 326 323 332 324 324 314
259 249 248 261 261 260 261 263 275 305 265 210 218 159 65 130 217 212 202 223 158 209 188 196 219 145 148 205 129 323 126 149 227 110 263 166 185 140 138 84 18 343 328 319 323 317 321 327 329 338 325 325 320 321
248 243 243 255 254 260 252 251 272 271 332 327 328 252 217 209 201 213 196 165 223 201 159 182 152 113 117 265 144 170 178 203 186 132 237 215 96 133 198 8 352 346 332 333 336 335 338 334 346 319 336 331 331 327
238 233 237 249 252 257 267 236 246 279 286 213 226 188 198 149 183 212 183 189 192 170 160 164 147 135 147 173 98 182 189 152 132 214 220 101 105 118 35 337 336 334 338 342 343 346 340 349 344 346 341 343 334 332
236 227 223 238 244 259 264 229 252 276 253 237 172 159 220 178 228 194 219 126 90 148 158 168 134 130 109 142 139 174 75 201 211 220 188 129 116 59 343 324 328 336 349 350 352 350 351 355 346 349 352 348 338 344
225 224 215 235 239 245 247 243 262 250 261 220 204 211 202 284 219 147 142 163 144 150 152 147 131 141 122 136 183 127 183 215 224 183 109 100 80 354 344 340 342 338 359 354 2 359 356 4 360 4 359 355 360 356
197 215 212 214 247 228 222 230 231 241 236 245 228 243 186 226 160 176 180 176 144 170 174 172 145 165 142 146 184 191 192 212 137 129 101 113 44 1 1 356 348 3 0 13 13 11 4 20 17 10 9 14 10 2
198 238 154 283 227 197 157 252 202 227 257 220 229 218 290 325 6 99 196 145 166 177 180 153 170 128 122 193 172 190 210 108 122 132 102 75 358 17 10 357 30 63 33 24 17 11 20 30 32 28 26 18 14 6
248 12 312 157 155 151 194 227 256 232 222 218 238 118 193 298 287 151 131 164 185 197 177 150 117 192 172 176 159 140 143 118 114 94 103 77 202 165 101 62 95 78 57 38 22 1 29 21 30 27 31 21 23 30
120 24 25 160 231 272 190 183 240 229 215 136 222 207 265 342 60 356 186 151 30 349 157 181 198 189 157 128 117 148 150 156 153 153 135 139 137 93 109 121 113 85 73 52 15 19 34 45 29 23 27 28 30 33
208 299 278 233 231 254 201 161 231 263 198 68 218 143 44 29 346 103 105 114 133 162 183 164 188 111 119 118 128 148 144 145 186 197 143 142 128 132 131 134 102 140 117 113 79 351 43 48 48 49 34 41 38 40
215 204 201 196 227 266 262 180 190 300 60 210 89 204 122 158 59 100 93 304 75 12 146 188 136 92 72 92 102 130 145 188 210 330 107 146 133 120 124 127 159 88 79 67 68 85 53 44 47 50 49 48 44 45
255 260 155 163 244 219 227 118 340 77 241 131 175 208 158 145 152 84 354 59 150 214 238 95 140 143 157 184 172 203 155 173 155 128 143 143 150 126 124 153 121 96 92 87 77 75 69 52 48 66 55 71 75 56
303 240 45 339 308 66 129 159 224 178 181 146 168 174 193 176 166 170 162 214 233 178 184 206 185 179 212 139 146 156 170 193 175 176 164 150 129 127 133 124 125 123 114 100 98 92 86 80 70 59 68 57 52 44
250 108 237 155 241 224 213 188 177 164 154 168 167 180 202 192 163 223 229 195 201 163 181 185 188 171 175 179 188 182 177 185 140 200 140 160 136 126 156 130 124 116 118 133 126 119 102 88 102 67 47 42 35 41
59 40 358 297 195 217 226 157 146 184 168 131 150 221 213 175 217 229 227 209 200 204 206 183 194 203 210 187 186 160 172 202 166 163 164 154 130 146 141 140 136 135 155 152 135 127 121 106 75 52 46 33 1 2
149 174 201 204 133 227 137 150 188 132 203 195 245 328 265 224 226 227 212 213 204 209 201 195 190 184 194 188 184 175 171 161 186 156 162 153 158 154 148 149 148 152 186 146 147 147 169 254 28 332 9 45 210 330
177 162 169 235 345 155 199 234 287 145 155 206 281 271 242 246 218 202 112 147 175 179 181 188 187 187 172 160 139 128 153 179 167 171 143 182 167 155 155 154 151 140 171 202 229 308 343 358 334 359 0 51 34 21
349 192 209 159 194 248 297 230 191 112 142 209 248 219 218 242 64 44 47 47 47 138 138 145 152 152 151 147 144 139 133 161 148 155 154 151 165 167 170 130 110 69 283 279 283 199 29 40 55 58 46 44 53 46
167 307 231 175 175 230 263 292 67 158 204 216 250 93 54 57 10 11 19 0 157 149 146 140 128 121 126 135 153 159 151 161 164 163 165 158 162 170 182 197 165 201 203 147 99 10 89 66 69 77 61 63 54 30
216 215 215 180 190 207 274 163 193 237 248 261 292 218 117 87 59 16 46 132 154 126 114 126 150 161 159 157 153 156 175 164 192 174 175 172 173 170 167 190 197 172 133 188 149 141 105 166 150 200 219 250 325 341
247 190 216 192 159 204 203 206 232 242 249 237 228 43 103 103 118 114 63 39 96 107 110 95 135 148 152 145 151 168 176 189 191 193 192 164 158 150 173 186 167 170 200 187 182 184 178 207 207 205 211 280 16 296
189 209 204 171 201 168 219 241 273 220 137 171 108 122 149 160 93 33 62 60 89 104 45 307 238 168 137 125 121 118 269 162 166 177 183 179 160 153 172 165 105 227 178 204 206 201 196 231 199 269 254 227 306 319
178 216 247 226 185 199 179 233 207 171 175 112 105 37 4 48 106 182 162 211 318 141 190 214 201 152 140 130 103 117 124 99 75 64 58 23 2 344 301 257 234 230 187 191 201 216 209 230 265 244 259 289 284 300